Regional Weather Roundup
Issued by NWS Jackson, KY

Home | Current Version | Previous Version | Graphics & Text | Print | Product List | Glossary On
Versions: 1 2 3 4 5 6 7 8 9 10 11 12 13 14 15 16 17 18 19 20 21 22 23 24 25 26 27 28 29 30 31 32 33 34 35 36 37 38 39 40 41 42 43 44 45 46 47 48 49 50
000
ASUS43 KJKL 060510
RWRJKL

EAST KENTUCKY HOURLY WEATHER ROUNDUP
NATIONAL WEATHER SERVICE JACKSON KY
100 AM EDT WED MAY 06 2015

NOTE: "FAIR" INDICATES FEW OR NO CLOUDS BELOW 12,000 FEET WITH
NO SIGNIFICANT WEATHER AND/OR OBSTRUCTIONS TO VISIBILITY.

* THESE REPORTS ARE NOT UNDER NWS QUALITY CONTROL AND MAY NOT
  REPORT WEATHER SUCH AS PRECIPITATION AND FOG.

KYZ079-080-083-085-087-088-110-112-115-119-120-060600
...EASTERN KENTUCKY...

CITY           SKY/WX    TMP DP  RH WIND       PRES   REMARKS
JACKSON        CLEAR     71  49  45 CALM      30.25S
LONDON         CLEAR     62  53  72 CALM      30.25R
SOMERSET*      MOCLDY    59  55  88 CALM      30.25S
MONTICELLO*    PTCLDY    61  58  90 CALM      30.27R
MIDDLESBORO*   MOCLDY    60  55  85 CALM      30.27S
HARLAN APT*    MOCLDY    59  54  82 CALM      30.28R
HAZARD APT*    CLEAR     61  57  88 CALM      30.25S
BLACK MTN*       N/A     61  50  67 S7          N/A
PIKEVILLE APT* CLEAR     66  55  68 S3        30.25S
BIG SANDY*     CLEAR     64  56  76 CALM      30.24S
MOREHEAD APT*  CLEAR     63  54  72 SE3       30.25S
$$

KYZ035-036-041-042-044-050-067-078-099-060600
...CENTRAL KENTUCKY...

CITY           SKY/WX    TMP DP  RH WIND       PRES   REMARKS
MT STERLING*   CLEAR     59  55  88 CALM      30.25R
FLEMING/MASON* CLEAR     64  55  72 S3        30.24R
DANVILLE*      CLEAR     61  54  77 CALM      30.25S
RICHMOND*      CLEAR     63  55  77 SE5       30.23S
LEXINGTON      CLEAR     63  55  75 CALM      30.23S
FRANKFORT      CLEAR     60  54  80 CALM      30.21S
$$

KYZ091>093-OHZ055-061-077-WVZ005-015-034-035-042-060600
...SOUTHERN OHIO/WEST VIRGINIA...

CITY           SKY/WX    TMP DP  RH WIND       PRES   REMARKS
COVINGTON      CLEAR     62  56  80 S3        30.21S
COLUMBUS       PTCLDY    61  58  90 CALM      30.20R
DAYTON         CLEAR     68  54  60 SW7       30.21S
WILMINGTON     CLEAR     65  52  62 S3        30.21S
HUNTINGTON     CLEAR     62  56  80 CALM      30.22R
CHARLESTON     CLEAR     62  56  80 CALM      30.22F
PINEVILLE*     MOCLDY    59  59  99 MISG      30.32S
BECKLEY        CLOUDY    63  51  65 SE3       30.30S
BLUEFIELD      MOCLDY    67  49  52 CALM      30.33R
$$

VAZ002-007-008-TNZ017-027-036-066-071-060600
...SOUTHWEST VIRGINIA/EAST TENNESSEE...

CITY           SKY/WX    TMP DP  RH WIND       PRES   REMARKS
WISE*          PTCLDY    63  46  55 CALM      30.33R
JONESVILLE*    MOCLDY    59  54  82 CALM      30.29R
ABINGDON*      PTCLDY    62  55  77 CALM      30.30S
BRISTOL        PTCLDY    64  55  72 CALM      30.27R
KNOXVILLE      CLOUDY    70  55  59 SW3       30.24R
OAK RIDGE      CLOUDY    69  59  70 CALM      30.26R
CROSSVILLE     CLOUDY    65  54  67 CALM      30.28S
NASHVILLE      MOCLDY    67  57  70 CALM      30.21S
$$

...KEY TO REMARKS...
VSB - VISIBILITY IN MILES
WCI - WIND CHILL INDEX
HX  - HEAT INDEX

$$


USA.gov is the U.S. government's official web portal to all federal, state and local government web resources and services.